Location: ????????
(60.5616°N, 46.8254°E)
Time: 03:49:01
(UTC+00:00)

Cosmos 1302 Rocket - Pass Details

Date: 18 February 2020
Orbit: 756 x 776 km, 74.0° (Epoch: 09 April)

Event Time Altitude Azimuth Distance (km) Brightness Sun altitude
Rises 15:18:29 0° 208° (SSW) 3,214 7.7 -11.6°
Reaches altitude 10° 15:20:50 10° 208° (SSW) 2,290 6.9 -11.9°
Maximum altitude 15:26:02 84° 121° (ESE) 771 3.9 -12.5°
Drops below altitude 10° 15:31:16 10° 34° (NE) 2,299 6.1 -13.2°
Enters shadow 15:33:21 - 34° (NE) 3,119 6.8 -13.4°
